Home > Weather > Port Said > Past weeks

Flag for Egypt Weather for the Past 2 Weeks in Port Said, Egypt

Now
52 °F

Passing clouds.


Feels Like: 49 °F
Forecast: 52 / 59 °F
Wind: 7 mph from West

Location: Port Said Airport

Current Time: Feb 8, 2016 at 5:14:36 AM

Latest Report: Feb 8, 2016 at 4:00 AM


Visibility: N/A

Pressure: 30.18 "Hg

Humidity: 82%

Dew point: 46 °F

Location of Port SaidLocation

Historic Weather in Port Said — Graph

°F

Port Said Temperature Yesterday

Maximum temperature yesterday: 59 °F (at 2:00 PM)
Minimum temperature yesterday: 48 °F (at 7:00 AM)
Average temperature yesterday: 53 °F

High & Low Weather Summary for the Past Weeks

 TemperatureHumidityPressure
High68 °F (Feb 3, 2:00 PM)100% (Feb 6, 5:00 AM)30.48 "Hg (Feb 6, 5:00 AM)
Low45 °F (Jan 26, 5:00 AM)44% (Jan 24, 3:00 PM)29.92 "Hg (Feb 4, 10:00 PM)
Average56 °F77%30.22 "Hg
* Reported Jan 24 3:00 AM — Feb 8 3:00 AM, Port Said, Weather by CustomWeather, © 2016

Note: Actual official high and low records may vary slightly from our data, if they occured in-between our weather recording intervals... More about our weather records

Advertising

Port Said Weather History for the Previous 24 Hours

 ConditionsComfort  
Time TempWeatherWind HumidityBarometerVisibility
3:00 AM
Mon, Feb 8
52 °FPassing clouds.6 mph77%30.18 "HgN/A
2:00 AM52 °FPassing clouds.6 mph77%30.18 "HgN/A
1:00 AM54 °FPassing clouds.9 mph72%30.18 "HgN/A
12:00 AM54 °FPassing clouds.9 mph72%30.21 "HgN/A
11:00 PM
Sun, Feb 7
54 °FPassing clouds.13 mph72%30.18 "HgN/A
9:00 PM55 °FPassing clouds.14 mph72%30.18 "HgN/A
8:00 PM55 °FPassing clouds.14 mph72%30.15 "HgN/A
7:00 PM55 °FPassing clouds.13 mph72%30.15 "HgN/A
6:00 PM55 °FPassing clouds.14 mph67%30.12 "HgN/A
5:00 PM55 °FScattered clouds.10 mph72%30.12 "HgN/A
4:00 PM54 °FRain showers. Scattered clouds.18 mph88%30.09 "Hg4 mi
3:00 PM59 °FScattered clouds.12 mph59%30.07 "HgN/A
2:00 PM59 °FScattered clouds.15 mph59%30.07 "HgN/A
1:00 PM54 °FScattered clouds.21 mph82%30.09 "HgN/A
12:00 PM54 °FScattered clouds.21 mph82%30.09 "HgN/A
11:00 AM50 °FScattered clouds.21 mph94%30.09 "HgN/A
10:00 AM52 °FScattered clouds.21 mph82%30.09 "HgN/A
9:00 AM50 °FRain showers. Scattered clouds.18 mph88%30.09 "Hg4 mi
8:00 AM50 °FScattered clouds.18 mph82%30.07 "HgN/A
7:00 AM48 °FRain showers. Scattered clouds.22 mph87%30.04 "Hg4 mi
6:00 AM50 °FPassing clouds.15 mph82%30.04 "HgN/A
5:00 AM50 °FPassing clouds.22 mph82%30.04 "HgN/A
Weather by CustomWeather, © 2016

See weather overviewHow to use our weather pages